DMSP 5D-2 F13 DEB, 40470

Orbit data source: Space-Track

DMSP 5D-2 F13 DEB, 40470 is space debris in SSO originally from a launch on Fri, 24 Mar 1995 UTC launched from the Air Force Western Test Range (AFWTR). Debris objects in space refer to the collection of defunct objects orbiting the Earth. Examples of debris include non-operational satellites, rocket bodies, and fragments generated from explosions, collisions, or faulty payload assembly.

Loading next visibility...
Identifier
40470, 1995-015BN
Orbit
SSO
Country
Flag of USUS
Related business
Manufacturer
Unknown
Mission
Spacecraft
Bus & Motor
Unknown
Mass
Unknown
Launch date (UTC)
1995-03-24 (31 years ago)
Launch vehicle
Unknown
Launch site
Air Force Western Test Range (AFWTR)
Object type
Payload
Rocket body
Debris
Shape & HBR
Unknown shape, 0.1 m
Radar Cross Section
Small (<0.1 m²)

Expand to show TLE details & history
Last TLE update: 3 days ago

TLE from 3 days ago
0 DMSP 5D-2 F13 DEB
1 40470U 95015BN  25284.25309610  .00004289  00000-0  19703-2 0  9997
2 40470  98.9874 274.7841 0046682  79.3997 281.2432 14.21174962544524
Epoch: 2025-10-11T06:04Z
TLE epoch observation values (Epoch: 2025-10-11T06:04:27.503Z)
Latitude
-0.00005°
Longitude
163.58227°
Altitude
817.886 km
Speed
7.448 km/s
True Right ascension
18h 19m 08s
True Declination
0° 00' 00"
Sunlit
Object was in daylight at epoch
Visualization orbit readout
Latitude
Unknown
Longitude
Unknown
Altitude
Unknown
Speed
Unknown
Apparent Right ascension
Unknown
Apparent Declination
Unknown
Sunlit
N/A
Visualization observer readout
Local Sidereal Time
09:35:41
Azimuth
Unknown
Elevation
Unknown
Doppler factor
Unknown
Orbital elements
Apogee altitude
852.148 km
Perigee altitude
784.957 km
Semi-major axis
7,196.689 km
Eccentricity
0.00467
Inclination
98.9874°
RAAN
274.7841°
Arg. of periapsis
79.3997°
True anomaly
280.71794°
Mean anomaly
281.2432°
Eccentric anomaly
280.98063°
Mean motion
3.55504 °/min
Orbital period
101.26 mins
BSTAR
0.0019703
Loading maneuver chart data...
Computing Atmospheric mass density...

Documentation

Showing up to 5 results
|